<?xml version="1.0" encoding="UTF-8" standalone="no" ?>
<gpx xmlns="http://www.topografix.com/GPX/1/1" xmlns:xsi="http://www.w3.org/2001/XMLSchema-instance" xsi:schemaLocation="http://www.topografix.com/GPX/1/1 http://www.topografix.com/GPX/1/1/gpx.xsd" version="1.1" creator="VisuGPX - https://www.visugpx.com">
  <metadata>
    <name>tayrac 16 juillet 2016</name>
    <desc><![CDATA[tayrac- st maurin]]></desc>
  </metadata>
  <trk>
    <name><![CDATA[Tracé]]></name>
    <trkseg>
      <trkpt lat="44.19699" lon="0.84277">
        <ele>40.99</ele>
        <time>2016-07-23T06:27:46Z</time>
      </trkpt>
      <trkpt lat="44.19701" lon="0.84261">
        <ele>41.47</ele>
        <time>2016-07-23T06:28:03Z</time>
      </trkpt>
      <trkpt lat="44.19704" lon="0.84249">
        <ele>41.95</ele>
        <time>2016-07-23T06:28:13Z</time>
      </trkpt>
      <trkpt lat="44.19708" lon="0.84238">
        <ele>41.95</ele>
        <time>2016-07-23T06:28:24Z</time>
      </trkpt>
      <trkpt lat="44.19708" lon="0.84226">
        <ele>41.47</ele>
        <time>2016-07-23T06:28:35Z</time>
      </trkpt>
      <trkpt lat="44.19711" lon="0.84213">
        <ele>40.99</ele>
        <time>2016-07-23T06:28:45Z</time>
      </trkpt>
      <trkpt lat="44.19711" lon="0.84198">
        <ele>40.99</ele>
        <time>2016-07-23T06:28:57Z</time>
      </trkpt>
      <trkpt lat="44.19706" lon="0.8419">
        <ele>40.99</ele>
        <time>2016-07-23T06:29:12Z</time>
      </trkpt>
      <trkpt lat="44.19698" lon="0.84185">
        <ele>40.03</ele>
        <time>2016-07-23T06:29:25Z</time>
      </trkpt>
      <trkpt lat="44.19693" lon="0.84182">
        <ele>39.07</ele>
        <time>2016-07-23T06:29:35Z</time>
      </trkpt>
      <trkpt lat="44.19685" lon="0.84178">
        <ele>39.07</ele>
        <time>2016-07-23T06:29:49Z</time>
      </trkpt>
      <trkpt lat="44.19674" lon="0.84173">
        <ele>38.11</ele>
        <time>2016-07-23T06:30:07Z</time>
      </trkpt>
      <trkpt lat="44.19663" lon="0.84167">
        <ele>38.11</ele>
        <time>2016-07-23T06:30:19Z</time>
      </trkpt>
      <trkpt lat="44.19652" lon="0.84164">
        <ele>38.11</ele>
        <time>2016-07-23T06:30:28Z</time>
      </trkpt>
      <trkpt lat="44.19642" lon="0.84157">
        <ele>38.59</ele>
        <time>2016-07-23T06:30:41Z</time>
      </trkpt>
      <trkpt lat="44.19632" lon="0.84147">
        <ele>38.11</ele>
        <time>2016-07-23T06:30:52Z</time>
      </trkpt>
      <trkpt lat="44.1962" lon="0.84142">
        <ele>38.11</ele>
        <time>2016-07-23T06:31:01Z</time>
      </trkpt>
      <trkpt lat="44.19611" lon="0.84137">
        <ele>38.11</ele>
        <time>2016-07-23T06:31:09Z</time>
      </trkpt>
      <trkpt lat="44.19602" lon="0.84132">
        <ele>38.11</ele>
        <time>2016-07-23T06:31:18Z</time>
      </trkpt>
      <trkpt lat="44.19592" lon="0.84126">
        <ele>38.11</ele>
        <time>2016-07-23T06:31:28Z</time>
      </trkpt>
      <trkpt lat="44.19583" lon="0.8412">
        <ele>38.11</ele>
        <time>2016-07-23T06:31:37Z</time>
      </trkpt>
      <trkpt lat="44.19573" lon="0.84116">
        <ele>38.11</ele>
        <time>2016-07-23T06:31:47Z</time>
      </trkpt>
      <trkpt lat="44.19564" lon="0.84112">
        <ele>38.59</ele>
        <time>2016-07-23T06:31:56Z</time>
      </trkpt>
      <trkpt lat="44.19554" lon="0.84105">
        <ele>38.11</ele>
        <time>2016-07-23T06:32:05Z</time>
      </trkpt>
      <trkpt lat="44.19545" lon="0.84099">
        <ele>37.63</ele>
        <time>2016-07-23T06:32:15Z</time>
      </trkpt>
      <trkpt lat="44.19536" lon="0.84094">
        <ele>37.63</ele>
        <time>2016-07-23T06:32:24Z</time>
      </trkpt>
      <trkpt lat="44.19526" lon="0.84087">
        <ele>38.11</ele>
        <time>2016-07-23T06:32:33Z</time>
      </trkpt>
      <trkpt lat="44.19514" lon="0.84081">
        <ele>38.11</ele>
        <time>2016-07-23T06:32:45Z</time>
      </trkpt>
      <trkpt lat="44.19503" lon="0.84074">
        <ele>38.11</ele>
        <time>2016-07-23T06:32:56Z</time>
      </trkpt>
      <trkpt lat="44.19493" lon="0.84069">
        <ele>38.59</ele>
        <time>2016-07-23T06:33:05Z</time>
      </trkpt>
      <trkpt lat="44.19483" lon="0.84065">
        <ele>38.59</ele>
        <time>2016-07-23T06:33:14Z</time>
      </trkpt>
      <trkpt lat="44.19474" lon="0.84059">
        <ele>38.59</ele>
        <time>2016-07-23T06:33:24Z</time>
      </trkpt>
      <trkpt lat="44.19463" lon="0.84053">
        <ele>38.59</ele>
        <time>2016-07-23T06:33:34Z</time>
      </trkpt>
      <trkpt lat="44.19454" lon="0.84048">
        <ele>38.59</ele>
        <time>2016-07-23T06:33:43Z</time>
      </trkpt>
      <trkpt lat="44.19443" lon="0.84043">
        <ele>38.59</ele>
        <time>2016-07-23T06:33:52Z</time>
      </trkpt>
      <trkpt lat="44.19434" lon="0.84038">
        <ele>38.59</ele>
        <time>2016-07-23T06:34:01Z</time>
      </trkpt>
      <trkpt lat="44.19424" lon="0.84031">
        <ele>39.07</ele>
        <time>2016-07-23T06:34:12Z</time>
      </trkpt>
      <trkpt lat="44.19413" lon="0.84024">
        <ele>39.07</ele>
        <time>2016-07-23T06:34:22Z</time>
      </trkpt>
      <trkpt lat="44.19404" lon="0.84018">
        <ele>39.07</ele>
        <time>2016-07-23T06:34:30Z</time>
      </trkpt>
      <trkpt lat="44.19394" lon="0.84013">
        <ele>39.07</ele>
        <time>2016-07-23T06:34:39Z</time>
      </trkpt>
      <trkpt lat="44.19384" lon="0.84007">
        <ele>39.07</ele>
        <time>2016-07-23T06:34:49Z</time>
      </trkpt>
      <trkpt lat="44.19372" lon="0.84001">
        <ele>39.07</ele>
        <time>2016-07-23T06:35:00Z</time>
      </trkpt>
      <trkpt lat="44.19364" lon="0.83992">
        <ele>39.07</ele>
        <time>2016-07-23T06:35:08Z</time>
      </trkpt>
      <trkpt lat="44.19354" lon="0.83986">
        <ele>39.55</ele>
        <time>2016-07-23T06:35:16Z</time>
      </trkpt>
      <trkpt lat="44.19346" lon="0.83983">
        <ele>39.55</ele>
        <time>2016-07-23T06:35:26Z</time>
      </trkpt>
      <trkpt lat="44.19336" lon="0.83977">
        <ele>40.51</ele>
        <time>2016-07-23T06:35:35Z</time>
      </trkpt>
      <trkpt lat="44.19328" lon="0.8397">
        <ele>40.99</ele>
        <time>2016-07-23T06:35:44Z</time>
      </trkpt>
      <trkpt lat="44.19319" lon="0.8396">
        <ele>40.99</ele>
        <time>2016-07-23T06:35:54Z</time>
      </trkpt>
      <trkpt lat="44.19309" lon="0.83954">
        <ele>40.99</ele>
        <time>2016-07-23T06:36:03Z</time>
      </trkpt>
      <trkpt lat="44.193" lon="0.8395">
        <ele>41.47</ele>
        <time>2016-07-23T06:36:11Z</time>
      </trkpt>
      <trkpt lat="44.19292" lon="0.83946">
        <ele>41.47</ele>
        <time>2016-07-23T06:36:21Z</time>
      </trkpt>
      <trkpt lat="44.19282" lon="0.83943">
        <ele>41.47</ele>
        <time>2016-07-23T06:36:32Z</time>
      </trkpt>
      <trkpt lat="44.19271" lon="0.8394">
        <ele>41.95</ele>
        <time>2016-07-23T06:36:42Z</time>
      </trkpt>
      <trkpt lat="44.19261" lon="0.83935">
        <ele>41.95</ele>
        <time>2016-07-23T06:36:51Z</time>
      </trkpt>
      <trkpt lat="44.19251" lon="0.83932">
        <ele>41.95</ele>
        <time>2016-07-23T06:37:01Z</time>
      </trkpt>
      <trkpt lat="44.1924" lon="0.83927">
        <ele>41.95</ele>
        <time>2016-07-23T06:37:10Z</time>
      </trkpt>
      <trkpt lat="44.19231" lon="0.83924">
        <ele>42.44</ele>
        <time>2016-07-23T06:37:19Z</time>
      </trkpt>
      <trkpt lat="44.19222" lon="0.83919">
        <ele>43.4</ele>
        <time>2016-07-23T06:37:28Z</time>
      </trkpt>
      <trkpt lat="44.19213" lon="0.83915">
        <ele>43.88</ele>
        <time>2016-07-23T06:37:38Z</time>
      </trkpt>
      <trkpt lat="44.19203" lon="0.83912">
        <ele>43.88</ele>
        <time>2016-07-23T06:37:46Z</time>
      </trkpt>
      <trkpt lat="44.19194" lon="0.83909">
        <ele>44.36</ele>
        <time>2016-07-23T06:37:56Z</time>
      </trkpt>
      <trkpt lat="44.19185" lon="0.83904">
        <ele>44.36</ele>
        <time>2016-07-23T06:38:04Z</time>
      </trkpt>
      <trkpt lat="44.19176" lon="0.839">
        <ele>44.84</ele>
        <time>2016-07-23T06:38:14Z</time>
      </trkpt>
      <trkpt lat="44.19167" lon="0.83894">
        <ele>45.32</ele>
        <time>2016-07-23T06:38:24Z</time>
      </trkpt>
      <trkpt lat="44.19158" lon="0.83888">
        <ele>45.8</ele>
        <time>2016-07-23T06:38:34Z</time>
      </trkpt>
      <trkpt lat="44.19149" lon="0.83888">
        <ele>46.28</ele>
        <time>2016-07-23T06:38:44Z</time>
      </trkpt>
      <trkpt lat="44.1914" lon="0.83895">
        <ele>47.72</ele>
        <time>2016-07-23T06:38:55Z</time>
      </trkpt>
      <trkpt lat="44.19135" lon="0.83907">
        <ele>49.16</ele>
        <time>2016-07-23T06:39:06Z</time>
      </trkpt>
      <trkpt lat="44.19132" lon="0.83921">
        <ele>50.13</ele>
        <time>2016-07-23T06:39:17Z</time>
      </trkpt>
      <trkpt lat="44.19131" lon="0.83936">
        <ele>50.61</ele>
        <time>2016-07-23T06:39:27Z</time>
      </trkpt>
      <trkpt lat="44.19131" lon="0.83949">
        <ele>51.57</ele>
        <time>2016-07-23T06:39:36Z</time>
      </trkpt>
      <trkpt lat="44.1913" lon="0.83962">
        <ele>51.57</ele>
        <time>2016-07-23T06:39:45Z</time>
      </trkpt>
      <trkpt lat="44.19131" lon="0.83977">
        <ele>52.05</ele>
        <time>2016-07-23T06:39:55Z</time>
      </trkpt>
      <trkpt lat="44.1913" lon="0.8399">
        <ele>52.53</ele>
        <time>2016-07-23T06:40:04Z</time>
      </trkpt>
      <trkpt lat="44.1913" lon="0.84001">
        <ele>53.49</ele>
        <time>2016-07-23T06:40:13Z</time>
      </trkpt>
      <trkpt lat="44.19129" lon="0.84015">
        <ele>53.49</ele>
        <time>2016-07-23T06:40:23Z</time>
      </trkpt>
      <trkpt lat="44.19129" lon="0.84029">
        <ele>53.97</ele>
        <time>2016-07-23T06:40:33Z</time>
      </trkpt>
      <trkpt lat="44.19129" lon="0.84043">
        <ele>53.97</ele>
        <time>2016-07-23T06:40:42Z</time>
      </trkpt>
      <trkpt lat="44.19127" lon="0.84056">
        <ele>53.97</ele>
        <time>2016-07-23T06:40:50Z</time>
      </trkpt>
      <trkpt lat="44.19125" lon="0.84068">
        <ele>54.45</ele>
        <time>2016-07-23T06:40:58Z</time>
      </trkpt>
      <trkpt lat="44.19123" lon="0.84081">
        <ele>54.45</ele>
        <time>2016-07-23T06:41:06Z</time>
      </trkpt>
      <trkpt lat="44.19124" lon="0.84095">
        <ele>54.45</ele>
        <time>2016-07-23T06:41:16Z</time>
      </trkpt>
      <trkpt lat="44.19122" lon="0.8411">
        <ele>54.45</ele>
        <time>2016-07-23T06:41:25Z</time>
      </trkpt>
      <trkpt lat="44.19121" lon="0.84123">
        <ele>54.93</ele>
        <time>2016-07-23T06:41:34Z</time>
      </trkpt>
      <trkpt lat="44.1912" lon="0.84137">
        <ele>54.93</ele>
        <time>2016-07-23T06:41:43Z</time>
      </trkpt>
      <trkpt lat="44.1912" lon="0.84151">
        <ele>54.93</ele>
        <time>2016-07-23T06:41:52Z</time>
      </trkpt>
      <trkpt lat="44.19119" lon="0.84164">
        <ele>54.93</ele>
        <time>2016-07-23T06:42:01Z</time>
      </trkpt>
      <trkpt lat="44.19118" lon="0.84176">
        <ele>54.93</ele>
        <time>2016-07-23T06:42:10Z</time>
      </trkpt>
      <trkpt lat="44.19117" lon="0.84191">
        <ele>55.41</ele>
        <time>2016-07-23T06:42:19Z</time>
      </trkpt>
      <trkpt lat="44.19118" lon="0.84204">
        <ele>55.41</ele>
        <time>2016-07-23T06:42:27Z</time>
      </trkpt>
      <trkpt lat="44.19119" lon="0.84216">
        <ele>55.41</ele>
        <time>2016-07-23T06:42:36Z</time>
      </trkpt>
      <trkpt lat="44.1912" lon="0.8423">
        <ele>55.41</ele>
        <time>2016-07-23T06:42:44Z</time>
      </trkpt>
      <trkpt lat="44.1912" lon="0.84243">
        <ele>55.41</ele>
        <time>2016-07-23T06:42:52Z</time>
      </trkpt>
      <trkpt lat="44.19122" lon="0.84256">
        <ele>55.89</ele>
        <time>2016-07-23T06:43:00Z</time>
      </trkpt>
      <trkpt lat="44.19123" lon="0.84269">
        <ele>55.89</ele>
        <time>2016-07-23T06:43:10Z</time>
      </trkpt>
      <trkpt lat="44.19124" lon="0.84284">
        <ele>55.89</ele>
        <time>2016-07-23T06:43:19Z</time>
      </trkpt>
      <trkpt lat="44.19125" lon="0.84297">
        <ele>55.89</ele>
        <time>2016-07-23T06:43:26Z</time>
      </trkpt>
      <trkpt lat="44.19126" lon="0.8431">
        <ele>55.89</ele>
        <time>2016-07-23T06:43:34Z</time>
      </trkpt>
      <trkpt lat="44.19128" lon="0.84322">
        <ele>55.89</ele>
        <time>2016-07-23T06:43:42Z</time>
      </trkpt>
      <trkpt lat="44.19129" lon="0.84337">
        <ele>56.37</ele>
        <time>2016-07-23T06:43:52Z</time>
      </trkpt>
      <trkpt lat="44.1913" lon="0.8435">
        <ele>56.37</ele>
        <time>2016-07-23T06:44:00Z</time>
      </trkpt>
      <trkpt lat="44.19132" lon="0.84364">
        <ele>55.41</ele>
        <time>2016-07-23T06:44:09Z</time>
      </trkpt>
      <trkpt lat="44.19133" lon="0.84377">
        <ele>55.41</ele>
        <time>2016-07-23T06:44:17Z</time>
      </trkpt>
      <trkpt lat="44.19134" lon="0.84391">
        <ele>54.93</ele>
        <time>2016-07-23T06:44:26Z</time>
      </trkpt>
      <trkpt lat="44.19135" lon="0.84405">
        <ele>54.45</ele>
        <time>2016-07-23T06:44:35Z</time>
      </trkpt>
      <trkpt lat="44.19135" lon="0.84419">
        <ele>54.93</ele>
        <time>2016-07-23T06:44:45Z</time>
      </trkpt>
      <trkpt lat="44.19135" lon="0.84434">
        <ele>54.93</ele>
        <time>2016-07-23T06:44:54Z</time>
      </trkpt>
      <trkpt lat="44.19135" lon="0.84449">
        <ele>54.93</ele>
        <time>2016-07-23T06:45:03Z</time>
      </trkpt>
      <trkpt lat="44.19134" lon="0.84463">
        <ele>54.93</ele>
        <time>2016-07-23T06:45:14Z</time>
      </trkpt>
      <trkpt lat="44.19132" lon="0.84479">
        <ele>54.93</ele>
        <time>2016-07-23T06:45:23Z</time>
      </trkpt>
      <trkpt lat="44.1913" lon="0.84492">
        <ele>55.41</ele>
        <time>2016-07-23T06:45:31Z</time>
      </trkpt>
      <trkpt lat="44.19127" lon="0.84507">
        <ele>55.41</ele>
        <time>2016-07-23T06:45:41Z</time>
      </trkpt>
      <trkpt lat="44.19124" lon="0.84521">
        <ele>55.41</ele>
        <time>2016-07-23T06:45:50Z</time>
      </trkpt>
      <trkpt lat="44.19121" lon="0.84534">
        <ele>55.41</ele>
        <time>2016-07-23T06:46:00Z</time>
      </trkpt>
      <trkpt lat="44.19118" lon="0.84548">
        <ele>55.89</ele>
        <time>2016-07-23T06:46:09Z</time>
      </trkpt>
      <trkpt lat="44.19115" lon="0.84561">
        <ele>55.89</ele>
        <time>2016-07-23T06:46:18Z</time>
      </trkpt>
      <trkpt lat="44.19112" lon="0.84575">
        <ele>55.89</ele>
        <time>2016-07-23T06:46:27Z</time>
      </trkpt>
      <trkpt lat="44.1911" lon="0.84588">
        <ele>55.89</ele>
        <time>2016-07-23T06:46:36Z</time>
      </trkpt>
      <trkpt lat="44.19108" lon="0.84603">
        <ele>56.37</ele>
        <time>2016-07-23T06:46:46Z</time>
      </trkpt>
      <trkpt lat="44.19105" lon="0.84616">
        <ele>56.37</ele>
        <time>2016-07-23T06:46:54Z</time>
      </trkpt>
      <trkpt lat="44.19104" lon="0.84628">
        <ele>56.37</ele>
        <time>2016-07-23T06:47:03Z</time>
      </trkpt>
      <trkpt lat="44.19102" lon="0.84642">
        <ele>56.37</ele>
        <time>2016-07-23T06:47:12Z</time>
      </trkpt>
      <trkpt lat="44.191" lon="0.84655">
        <ele>56.86</ele>
        <time>2016-07-23T06:47:21Z</time>
      </trkpt>
      <trkpt lat="44.19098" lon="0.84668">
        <ele>56.86</ele>
        <time>2016-07-23T06:47:29Z</time>
      </trkpt>
      <trkpt lat="44.19097" lon="0.84681">
        <ele>56.86</ele>
        <time>2016-07-23T06:47:39Z</time>
      </trkpt>
      <trkpt lat="44.19094" lon="0.84694">
        <ele>56.37</ele>
        <time>2016-07-23T06:47:47Z</time>
      </trkpt>
      <trkpt lat="44.19091" lon="0.84706">
        <ele>56.37</ele>
        <time>2016-07-23T06:47:55Z</time>
      </trkpt>
      <trkpt lat="44.19089" lon="0.8472">
        <ele>56.37</ele>
        <time>2016-07-23T06:48:05Z</time>
      </trkpt>
      <trkpt lat="44.19085" lon="0.84733">
        <ele>56.37</ele>
        <time>2016-07-23T06:48:13Z</time>
      </trkpt>
      <trkpt lat="44.19082" lon="0.84747">
        <ele>55.89</ele>
        <time>2016-07-23T06:48:22Z</time>
      </trkpt>
      <trkpt lat="44.19078" lon="0.8476">
        <ele>55.89</ele>
        <time>2016-07-23T06:48:32Z</time>
      </trkpt>
      <trkpt lat="44.19076" lon="0.84773">
        <ele>55.89</ele>
        <time>2016-07-23T06:48:40Z</time>
      </trkpt>
      <trkpt lat="44.19074" lon="0.84786">
        <ele>56.37</ele>
        <time>2016-07-23T06:48:48Z</time>
      </trkpt>
      <trkpt lat="44.19073" lon="0.84799">
        <ele>56.37</ele>
        <time>2016-07-23T06:48:58Z</time>
      </trkpt>
      <trkpt lat="44.19073" lon="0.84814">
        <ele>56.37</ele>
        <time>2016-07-23T06:49:07Z</time>
      </trkpt>
      <trkpt lat="44.19073" lon="0.84828">
        <ele>56.37</ele>
        <time>2016-07-23T06:49:17Z</time>
      </trkpt>
      <trkpt lat="44.19073" lon="0.84842">
        <ele>56.37</ele>
        <time>2016-07-23T06:49:25Z</time>
      </trkpt>
      <trkpt lat="44.19074" lon="0.84855">
        <ele>56.86</ele>
        <time>2016-07-23T06:49:33Z</time>
      </trkpt>
      <trkpt lat="44.19074" lon="0.8487">
        <ele>56.86</ele>
        <time>2016-07-23T06:49:43Z</time>
      </trkpt>
      <trkpt lat="44.19074" lon="0.84884">
        <ele>56.86</ele>
        <time>2016-07-23T06:49:52Z</time>
      </trkpt>
      <trkpt lat="44.19075" lon="0.84898">
        <ele>56.86</ele>
        <time>2016-07-23T06:50:02Z</time>
      </trkpt>
      <trkpt lat="44.19075" lon="0.84912">
        <ele>57.34</ele>
        <time>2016-07-23T06:50:12Z</time>
      </trkpt>
      <trkpt lat="44.19077" lon="0.84927">
        <ele>57.34</ele>
        <time>2016-07-23T06:50:22Z</time>
      </trkpt>
      <trkpt lat="44.19078" lon="0.84941">
        <ele>57.34</ele>
        <time>2016-07-23T06:50:32Z</time>
      </trkpt>
      <trkpt lat="44.19078" lon="0.84955">
        <ele>57.34</ele>
        <time>2016-07-23T06:50:40Z</time>
      </trkpt>
      <trkpt lat="44.1908" lon="0.84968">
        <ele>57.34</ele>
        <time>2016-07-23T06:50:50Z</time>
      </trkpt>
      <trkpt lat="44.1908" lon="0.84983">
        <ele>57.82</ele>
        <time>2016-07-23T06:50:59Z</time>
      </trkpt>
      <trkpt lat="44.19083" lon="0.84997">
        <ele>57.82</ele>
        <time>2016-07-23T06:51:08Z</time>
      </trkpt>
      <trkpt lat="44.19085" lon="0.8501">
        <ele>57.82</ele>
        <time>2016-07-23T06:51:16Z</time>
      </trkpt>
      <trkpt lat="44.19085" lon="0.85023">
        <ele>57.82</ele>
        <time>2016-07-23T06:51:26Z</time>
      </trkpt>
      <trkpt lat="44.19086" lon="0.85037">
        <ele>57.82</ele>
        <time>2016-07-23T06:51:34Z</time>
      </trkpt>
      <trkpt lat="44.19086" lon="0.8505">
        <ele>57.34</ele>
        <time>2016-07-23T06:51:42Z</time>
      </trkpt>
      <trkpt lat="44.19086" lon="0.85064">
        <ele>56.86</ele>
        <time>2016-07-23T06:51:51Z</time>
      </trkpt>
      <trkpt lat="44.19086" lon="0.85078">
        <ele>56.86</ele>
        <time>2016-07-23T06:52:01Z</time>
      </trkpt>
      <trkpt lat="44.19086" lon="0.85091">
        <ele>57.34</ele>
        <time>2016-07-23T06:52:11Z</time>
      </trkpt>
      <trkpt lat="44.19086" lon="0.85104">
        <ele>56.37</ele>
        <time>2016-07-23T06:52:22Z</time>
      </trkpt>
      <trkpt lat="44.19084" lon="0.85117">
        <ele>56.86</ele>
        <time>2016-07-23T06:52:33Z</time>
      </trkpt>
      <trkpt lat="44.19083" lon="0.8513">
        <ele>56.86</ele>
        <time>2016-07-23T06:52:43Z</time>
      </trkpt>
      <trkpt lat="44.19082" lon="0.85145">
        <ele>57.82</ele>
        <time>2016-07-23T06:52:53Z</time>
      </trkpt>
      <trkpt lat="44.19079" lon="0.85157">
        <ele>57.82</ele>
        <time>2016-07-23T06:53:04Z</time>
      </trkpt>
      <trkpt lat="44.19077" lon="0.85171">
        <ele>60.22</ele>
        <time>2016-07-23T06:53:14Z</time>
      </trkpt>
      <trkpt lat="44.19075" lon="0.85184">
        <ele>58.3</ele>
        <time>2016-07-23T06:53:23Z</time>
      </trkpt>
      <trkpt lat="44.19075" lon="0.85198">
        <ele>58.3</ele>
        <time>2016-07-23T06:53:32Z</time>
      </trkpt>
      <trkpt lat="44.19074" lon="0.85211">
        <ele>58.3</ele>
        <time>2016-07-23T06:53:41Z</time>
      </trkpt>
      <trkpt lat="44.19073" lon="0.85225">
        <ele>58.3</ele>
        <time>2016-07-23T06:53:50Z</time>
      </trkpt>
      <trkpt lat="44.19071" lon="0.85238">
        <ele>58.78</ele>
        <time>2016-07-23T06:53:58Z</time>
      </trkpt>
      <trkpt lat="44.19071" lon="0.85252">
        <ele>58.78</ele>
        <time>2016-07-23T06:54:06Z</time>
      </trkpt>
      <trkpt lat="44.1907" lon="0.85265">
        <ele>58.3</ele>
        <time>2016-07-23T06:54:14Z</time>
      </trkpt>
      <trkpt lat="44.19068" lon="0.85277">
        <ele>58.3</ele>
        <time>2016-07-23T06:54:22Z</time>
      </trkpt>
      <trkpt lat="44.19068" lon="0.8529">
        <ele>58.3</ele>
        <time>2016-07-23T06:54:30Z</time>
      </trkpt>
      <trkpt lat="44.19068" lon="0.85303">
        <ele>58.78</ele>
        <time>2016-07-23T06:54:39Z</time>
      </trkpt>
      <trkpt lat="44.19067" lon="0.85317">
        <ele>58.78</ele>
        <time>2016-07-23T06:54:48Z</time>
      </trkpt>
      <trkpt lat="44.19066" lon="0.85331">
        <ele>58.78</ele>
        <time>2016-07-23T06:54:57Z</time>
      </trkpt>
      <trkpt lat="44.19066" lon="0.85345">
        <ele>58.78</ele>
        <time>2016-07-23T06:55:05Z</time>
      </trkpt>
      <trkpt lat="44.19064" lon="0.85359">
        <ele>58.78</ele>
        <time>2016-07-23T06:55:14Z</time>
      </trkpt>
      <trkpt lat="44.19064" lon="0.85373">
        <ele>59.26</ele>
        <time>2016-07-23T06:55:23Z</time>
      </trkpt>
      <trkpt lat="44.19064" lon="0.85386">
        <ele>59.26</ele>
        <time>2016-07-23T06:55:32Z</time>
      </trkpt>
      <trkpt lat="44.19064" lon="0.854">
        <ele>59.26</ele>
        <time>2016-07-23T06:55:40Z</time>
      </trkpt>
      <trkpt lat="44.19064" lon="0.85413">
        <ele>59.26</ele>
        <time>2016-07-23T06:55:49Z</time>
      </trkpt>
      <trkpt lat="44.19065" lon="0.85427">
        <ele>59.26</ele>
        <time>2016-07-23T06:55:58Z</time>
      </trkpt>
      <trkpt lat="44.19066" lon="0.8544">
        <ele>59.74</ele>
        <time>2016-07-23T06:56:07Z</time>
      </trkpt>
      <trkpt lat="44.19066" lon="0.85453">
        <ele>59.74</ele>
        <time>2016-07-23T06:56:17Z</time>
      </trkpt>
      <trkpt lat="44.19068" lon="0.85465">
        <ele>59.74</ele>
        <time>2016-07-23T06:56:26Z</time>
      </trkpt>
      <trkpt lat="44.1907" lon="0.8548">
        <ele>59.74</ele>
        <time>2016-07-23T06:56:36Z</time>
      </trkpt>
      <trkpt lat="44.19071" lon="0.85492">
        <ele>59.74</ele>
        <time>2016-07-23T06:56:45Z</time>
      </trkpt>
      <trkpt lat="44.19072" lon="0.85506">
        <ele>59.74</ele>
        <time>2016-07-23T06:56:55Z</time>
      </trkpt>
      <trkpt lat="44.19073" lon="0.85519">
        <ele>59.74</ele>
        <time>2016-07-23T06:57:03Z</time>
      </trkpt>
      <trkpt lat="44.19074" lon="0.85532">
        <ele>60.22</ele>
        <time>2016-07-23T06:57:13Z</time>
      </trkpt>
      <trkpt lat="44.19075" lon="0.85546">
        <ele>60.22</ele>
        <time>2016-07-23T06:57:22Z</time>
      </trkpt>
      <trkpt lat="44.19076" lon="0.85559">
        <ele>60.22</ele>
        <time>2016-07-23T06:57:32Z</time>
      </trkpt>
      <trkpt lat="44.19076" lon="0.85572">
        <ele>60.22</ele>
        <time>2016-07-23T06:57:40Z</time>
      </trkpt>
      <trkpt lat="44.19077" lon="0.85584">
        <ele>61.66</ele>
        <time>2016-07-23T06:57:48Z</time>
      </trkpt>
      <trkpt lat="44.19077" lon="0.85599">
        <ele>61.66</ele>
        <time>2016-07-23T06:57:58Z</time>
      </trkpt>
      <trkpt lat="44.19077" lon="0.85612">
        <ele>61.66</ele>
        <time>2016-07-23T06:58:07Z</time>
      </trkpt>
      <trkpt lat="44.19077" lon="0.85625">
        <ele>61.66</ele>
        <time>2016-07-23T06:58:16Z</time>
      </trkpt>
      <trkpt lat="44.19076" lon="0.85639">
        <ele>62.14</ele>
        <time>2016-07-23T06:58:26Z</time>
      </trkpt>
      <trkpt lat="44.19075" lon="0.85652">
        <ele>62.62</ele>
        <time>2016-07-23T06:58:36Z</time>
      </trkpt>
      <trkpt lat="44.19074" lon="0.85665">
        <ele>63.1</ele>
        <time>2016-07-23T06:58:46Z</time>
      </trkpt>
      <trkpt lat="44.19074" lon="0.85679">
        <ele>63.58</ele>
        <time>2016-07-23T06:58:56Z</time>
      </trkpt>
      <trkpt lat="44.19074" lon="0.85693">
        <ele>63.58</ele>
        <time>2016-07-23T06:59:06Z</time>
      </trkpt>
      <trkpt lat="44.19074" lon="0.85706">
        <ele>64.55</ele>
        <time>2016-07-23T06:59:16Z</time>
      </trkpt>
      <trkpt lat="44.19072" lon="0.85719">
        <ele>65.03</ele>
        <time>2016-07-23T06:59:26Z</time>
      </trkpt>
      <trkpt lat="44.19072" lon="0.85734">
        <ele>66.47</ele>
        <time>2016-07-23T06:59:37Z</time>
      </trkpt>
      <trkpt lat="44.19072" lon="0.85748">
        <ele>67.43</ele>
        <time>2016-07-23T06:59:48Z</time>
      </trkpt>
      <trkpt lat="44.19073" lon="0.85762">
        <ele>67.91</ele>
        <time>2016-07-23T06:59:59Z</time>
      </trkpt>
      <trkpt lat="44.19073" lon="0.85777">
        <ele>68.39</ele>
        <time>2016-07-23T07:00:10Z</time>
      </trkpt>
      <trkpt lat="44.19072" lon="0.85792">
        <ele>68.87</ele>
        <time>2016-07-23T07:00:20Z</time>
      </trkpt>
      <trkpt lat="44.19071" lon="0.85806">
        <ele>69.35</ele>
        <time>2016-07-23T07:00:30Z</time>
      </trkpt>
      <trkpt lat="44.19068" lon="0.85819">
        <ele>69.83</ele>
        <time>2016-07-23T07:00:41Z</time>
      </trkpt>
      <trkpt lat="44.19068" lon="0.85833">
        <ele>70.79</ele>
        <time>2016-07-23T07:00:52Z</time>
      </trkpt>
      <trkpt lat="44.19072" lon="0.85845">
        <ele>70.79</ele>
        <time>2016-07-23T07:01:03Z</time>
      </trkpt>
      <trkpt lat="44.19077" lon="0.85857">
        <ele>69.35</ele>
        <time>2016-07-23T07:01:12Z</time>
      </trkpt>
      <trkpt lat="44.19081" lon="0.85869">
        <ele>68.87</ele>
        <time>2016-07-23T07:01:21Z</time>
      </trkpt>
      <trkpt lat="44.19083" lon="0.85881">
        <ele>68.39</ele>
        <time>2016-07-23T07:01:29Z</time>
      </trkpt>
      <trkpt lat="44.19086" lon="0.85893">
        <ele>67.91</ele>
        <time>2016-07-23T07:01:46Z</time>
      </trkpt>
      <trkpt lat="44.19088" lon="0.85905">
        <ele>67.43</ele>
        <time>2016-07-23T07:01:56Z</time>
      </trkpt>
      <trkpt lat="44.1909" lon="0.85917">
        <ele>67.43</ele>
        <time>2016-07-23T07:02:06Z</time>
      </trkpt>
      <trkpt lat="44.19092" lon="0.8593">
        <ele>66.95</ele>
        <time>2016-07-23T07:02:16Z</time>
      </trkpt>
      <trkpt lat="44.19094" lon="0.85943">
        <ele>66.47</ele>
        <time>2016-07-23T07:02:26Z</time>
      </trkpt>
      <trkpt lat="44.19095" lon="0.85955">
        <ele>65.99</ele>
        <time>2016-07-23T07:02:36Z</time>
      </trkpt>
      <trkpt lat="44.19097" lon="0.85969">
        <ele>65.99</ele>
        <time>2016-07-23T07:02:47Z</time>
      </trkpt>
      <trkpt lat="44.19103" lon="0.85982">
        <ele>65.51</ele>
        <time>2016-07-23T07:02:59Z</time>
      </trkpt>
      <trkpt lat="44.19107" lon="0.85996">
        <ele>64.55</ele>
        <time>2016-07-23T07:03:10Z</time>
      </trkpt>
      <trkpt lat="44.19113" lon="0.86011">
        <ele>63.58</ele>
        <time>2016-07-23T07:03:25Z</time>
      </trkpt>
      <trkpt lat="44.19118" lon="0.86027">
        <ele>63.1</ele>
        <time>2016-07-23T07:03:39Z</time>
      </trkpt>
      <trkpt lat="44.19121" lon="0.86041">
        <ele>62.14</ele>
        <time>2016-07-23T07:03:52Z</time>
      </trkpt>
      <trkpt lat="44.19126" lon="0.86053">
        <ele>61.66</ele>
        <time>2016-07-23T07:04:02Z</time>
      </trkpt>
      <trkpt lat="44.19128" lon="0.86066">
        <ele>61.18</ele>
        <time>2016-07-23T07:04:11Z</time>
      </trkpt>
      <trkpt lat="44.19127" lon="0.8608">
        <ele>61.18</ele>
        <time>2016-07-23T07:04:22Z</time>
      </trkpt>
      <trkpt lat="44.19126" lon="0.86093">
        <ele>61.66</ele>
        <time>2016-07-23T07:04:31Z</time>
      </trkpt>
      <trkpt lat="44.19124" lon="0.86107">
        <ele>61.66</ele>
        <time>2016-07-23T07:04:41Z</time>
      </trkpt>
      <trkpt lat="44.19124" lon="0.86121">
        <ele>61.66</ele>
        <time>2016-07-23T07:04:52Z</time>
      </trkpt>
      <trkpt lat="44.19123" lon="0.86136">
        <ele>61.66</ele>
        <time>2016-07-23T07:05:03Z</time>
      </trkpt>
      <trkpt lat="44.19123" lon="0.86153">
        <ele>61.66</ele>
        <time>2016-07-23T07:05:15Z</time>
      </trkpt>
      <trkpt lat="44.19122" lon="0.86169">
        <ele>63.1</ele>
        <time>2016-07-23T07:05:25Z</time>
      </trkpt>
      <trkpt lat="44.1912" lon="0.86183">
        <ele>63.1</ele>
        <time>2016-07-23T07:05:35Z</time>
      </trkpt>
      <trkpt lat="44.1912" lon="0.86198">
        <ele>63.1</ele>
        <time>2016-07-23T07:05:46Z</time>
      </trkpt>
      <trkpt lat="44.19119" lon="0.86213">
        <ele>63.58</ele>
        <time>2016-07-23T07:05:57Z</time>
      </trkpt>
      <trkpt lat="44.19118" lon="0.86228">
        <ele>63.58</ele>
        <time>2016-07-23T07:06:08Z</time>
      </trkpt>
      <trkpt lat="44.19118" lon="0.86241">
        <ele>64.55</ele>
        <time>2016-07-23T07:06:43Z</time>
      </trkpt>
    </trkseg>
  </trk>
</gpx>